Dewpoint
62 62 63 63 63 63 63 63 63 63 63 63 62 62 64 64 61 60 61 62 64 64 61 64 64 63 62 61 63 64 62 62 64
63 63 63 63 63 64 64 65 65 65 65 64 64 65 66 62 61 62 63 65 66 65 66 66 66 67 67 65 62 64 65 64 62
63 63 64 64 65 65 66 65 65 65 65 65 65 64 65 60 58 60 61 66 65 65 65 66 66 67 67 67 66 65 66 67 67
64 64 64 65 65 66 66 66 66 66 64 63 62 62 63 57 57 58 61 66 64 62 66 64 63 64 63 63 62 62 63 64 65
67 66 66 65 66 66 66 66 66 65 62 59 60 60 59 55 56 58 61 64 62 65 63 61 61 61 60 61 61 60 60 61 62
66 65 66 67 67 66 65 65 64 63 59 58 56 54 53 52 54 57 61 59 61 62 60 59 59 59 59 58 57 57 58 58 59
65 64 66 67 67 66 64 64 62 58 52 46 45 39 50 51 52 55 61 57 62 59 58 57 57 57 56 55 55 54 55 56 56
64 64 65 64 63 61 60 55 51 46 43 33 31 36 47 48 48 54 57 53 60 56 55 54 53 53 52 52 51 51 51 52 52
62 63 62 61 61 57 53 50 44 34 31 29 25 32 42 44 47 56 59 59 57 55 53 51 49 48 47 47 47 48 49 49 49
62 61 60 60 59 54 50 44 34 27 26 26 24 25 36 41 49 52 56 56 54 51 49 47 46 45 45 46 47 47 47 48 49
60 59 59 58 57 51 46 34 30 27 26 25 24 24 28 42 47 47 51 54 50 47 44 42 41 41 42 44 45 46 47 48 48
57 57 55 53 50 44 33 29 30 29 27 25 24 23 25 37 42 43 43 48 49 40 39 37 38 38 39 42 43 44 46 46 47
56 54 52 48 41 34 32 32 31 29 28 25 24 26 25 25 37 36 38 39 37 40 36 34 34 35 38 40 43 43 42 44 45
54 52 48 42 39 35 32 31 29 27 26 25 24 28 28 27 28 31 33 32 33 33 35 35 32 31 33 36 39 40 40 42 42
52 49 43 40 36 33 30 28 29 27 26 24 27 29 30 26 25 26 26 28 26 26 25 27 25 28 29 30 33 37 39 39 40
50 47 41 37 34 32 28 29 26 26 27 27 27 31 26 27 27 27 25 26 25 25 25 23 22 23 28 27 30 34 35 37 39
52 45 40 35 33 30 30 31 30 28 25 25 28 24 24 25 23 28 25 22 24 23 20 19 19 21 23 26 32 31 32 35 38
53 44 42 34 34 32 30 31 30 29 25 22 25 25 24 20 22 24 21 19 22 20 21 19 20 21 21 27 29 33 30 34 38
50 44 40 43 37 31 32 32 33 29 26 25 22 20 19 17 14 21 22 19 17 18 20 21 20 20 23 27 31 34 33 35 38
49 44 42 42 39 39 36 36 34 30 28 28 24 20 22 20 19 15 19 20 19 19 21 21 21 21 22 25 30 33 34 37 39
Lifted_Index
6 6 5 5 5 5 4 4 3 3 3 3 3 2 2 2 3 2 2 1 0 0 0 0 0 0 1 1 1 0 1 1 1
5 5 5 5 4 4 3 3 2 2 2 2 2 2 2 2 2 2 1 0 -0 -0 -0 -0 -0 -0 -0 0 0 0 0 0 0
4 4 4 3 3 2 2 1 1 1 1 1 1 2 2 2 2 2 1 0 -0 -0 -0 -0 -0 -0 -0 0 1 1 0 0 0
3 3 3 2 2 1 0 -0 -0 0 1 2 2 3 3 3 3 2 1 1 1 1 1 1 1 1 1 2 2 2 2 2 1
2 2 2 1 1 -0 -0 -1 -0 1 2 4 4 4 4 4 4 3 2 2 1 2 2 2 2 3 3 3 4 4 4 4 3
1 1 1 0 -0 -0 -0 -0 1 2 4 5 5 5 5 5 5 5 4 3 2 3 3 4 4 4 5 5 6 6 6 6 5
-0 0 -0 -0 -0 -0 0 1 2 3 4 5 5 6 7 7 7 6 5 4 3 4 5 6 6 6 7 7 8 8 8 8 7
-0 -0 -0 -0 0 1 2 2 3 3 4 5 7 8 9 10 9 7 6 5 4 5 7 7 8 8 9 9 10 10 10 10 10
-1 -1 0 1 1 2 2 3 3 3 4 6 9 10 11 11 10 8 6 5 5 6 8 9 10 11 11 11 12 12 12 11 11
-1 -1 0 1 1 1 2 3 3 4 5 8 10 11 12 12 11 9 7 6 7 8 10 11 12 13 13 13 13 13 13 12 12
-1 -0 0 0 1 1 2 3 3 4 6 9 11 11 12 12 12 11 9 9 9 11 12 13 14 14 14 14 13 13 13 13 13
-0 0 0 0 0 1 2 2 3 4 7 9 10 10 11 12 12 12 12 11 12 13 14 15 15 15 15 15 14 14 14 14 14
0 0 0 -0 -0 1 1 2 2 5 7 9 9 9 10 11 12 13 13 14 14 15 16 16 17 17 16 16 15 15 15 15 15
0 0 -0 -0 -0 0 1 2 3 5 7 8 8 8 9 11 12 13 14 14 15 15 16 17 17 17 17 17 17 17 16 16 16
-0 -0 -0 -1 -1 0 1 1 3 6 8 7 7 8 9 10 11 13 14 14 15 16 16 17 18 18 18 18 18 18 17 17 17
-1 -1 -1 -1 -1 -0 0 1 3 6 7 7 6 7 8 9 10 12 13 14 15 16 17 17 18 18 19 19 19 19 19 18 18
-2 -1 -1 -1 -1 -1 -0 0 2 5 6 6 6 6 6 7 9 11 13 14 15 16 17 18 18 19 19 20 20 20 20 19 18
-2 -2 -2 -2 -1 -1 -1 -0 1 4 6 6 6 6 5 6 7 9 12 14 15 16 17 18 19 19 20 20 20 20 20 19 18
-2 -2 -2 -2 -2 -1 -1 -0 1 4 6 6 6 6 6 5 6 7 10 13 15 16 17 18 19 20 20 20 20 20 20 19 18
-2 -2 -2 -2 -2 -1 -1 -0 2 5 6 6 6 6 6 6 5 6 8 12 15 16 17 18 19 20 20 21 21 20 19 19 18